TimePDT,TemperatureF,Dew PointF,Humidity,Sea Level PressureIn,VisibilityMPH,Wind Direction,Wind SpeedMPH,Gust SpeedMPH,PrecipitationIn,Events,Conditions,WindDirDegrees,DateUTC
12:53 AM,63.0,46.0,54,29.90,10.0,East,4.6,-,N/A,,Clear,100,2013-06-16 07:53:00
1:53 AM,59.0,48.0,67,29.90,10.0,NW,4.6,-,N/A,,Clear,310,2013-06-16 08:53:00
2:53 AM,60.1,46.9,62,29.90,10.0,NW,3.5,-,N/A,,Clear,310,2013-06-16 09:53:00
3:53 AM,57.9,46.9,67,29.90,10.0,NW,3.5,-,N/A,,Clear,320,2013-06-16 10:53:00
4:53 AM,57.0,46.9,69,29.91,10.0,NNW,5.8,-,N/A,,Clear,330,2013-06-16 11:53:00
5:53 AM,55.9,48.0,75,29.94,10.0,NNW,3.5,-,N/A,,Clear,330,2013-06-16 12:53:00
6:53 AM,62.1,48.0,60,29.95,10.0,Calm,Calm,-,N/A,,Clear,0,2013-06-16 13:53:00
7:53 AM,68.0,48.0,49,29.96,10.0,North,8.1,-,N/A,,Clear,10,2013-06-16 14:53:00
8:53 AM,71.1,46.9,42,29.96,10.0,Variable,3.5,-,N/A,,Clear,0,2013-06-16 15:53:00
9:53 AM,73.0,45.0,37,29.96,10.0,Calm,Calm,-,N/A,,Clear,0,2013-06-16 16:53:00
10:53 AM,78.1,46.0,32,29.95,10.0,Variable,3.5,-,N/A,,Clear,0,2013-06-16 17:53:00
11:53 AM,82.0,48.9,31,29.93,10.0,Variable,4.6,-,N/A,,Clear,0,2013-06-16 18:53:00
12:53 PM,86.0,48.0,27,29.91,10.0,North,4.6,-,N/A,,Clear,350,2013-06-16 19:53:00
1:53 PM,89.1,45.0,22,29.88,10.0,NNW,8.1,-,N/A,,Clear,340,2013-06-16 20:53:00
2:53 PM,90.0,43.0,19,29.86,10.0,NW,9.2,-,N/A,,Clear,310,2013-06-16 21:53:00
3:53 PM,91.9,44.1,19,29.85,10.0,WNW,11.5,-,N/A,,Clear,300,2013-06-16 22:53:00
4:53 PM,93.0,43.0,18,29.83,10.0,North,10.4,-,N/A,,Partly Cloudy,350,2013-06-16 23:53:00
5:53 PM,91.0,45.0,20,29.82,10.0,NNW,10.4,-,N/A,,Partly Cloudy,330,2013-06-17 00:53:00
6:53 PM,89.1,48.0,24,29.82,10.0,NNW,8.1,-,N/A,,Clear,330,2013-06-17 01:53:00
7:53 PM,86.0,48.0,27,29.83,10.0,WNW,4.6,-,N/A,,Clear,290,2013-06-17 02:53:00
8:53 PM,84.0,45.0,25,29.84,10.0,West,13.8,-,N/A,,Partly Cloudy,270,2013-06-17 03:53:00
9:53 PM,81.0,48.0,31,29.87,10.0,West,20.7,-,N/A,,Clear,260,2013-06-17 04:53:00
10:53 PM,78.1,50.0,37,29.91,10.0,SW,8.1,-,N/A,,Clear,220,2013-06-17 05:53:00
11:53 PM,75.9,52.0,43,29.91,10.0,West,11.5,-,N/A,,Clear,280,2013-06-17 06:53:00